Location: Eaton Estates
(41.3089°N, 82.0057°W)
Time: 23:23:19
(UTC+00:00)

CAS-4B - Visible Passes

Search period start: 30 March 2023 00:00
Search period end: 09 April 2023 00:00
Orbit: 510 x 526 km, 43.0° (Epoch: 30 March)

Date Brightness Start Highest point End Pass type
(mag) Time Alt. Az. Time Alt. Az. Time Alt. Az.
30 Mar ? 08:54:52 28° ESE 08:54:52 28° ESE 08:57:30 10° E visible
30 Mar ? 10:29:49 12° WSW 10:33:27 87° NNW 10:37:29 10° ENE visible
31 Mar ? 08:39:16 24° ESE 08:39:16 24° ESE 08:41:17 10° E visible
31 Mar ? 10:14:14 18° W 10:17:10 82° NNW 10:21:13 10° ENE visible
01 Apr ? 08:23:37 20° E 08:23:37 20° E 08:25:01 10° E visible
01 Apr ? 09:58:34 24° W 10:00:53 78° N 10:04:54 10° ENE visible
02 Apr ? 08:07:55 15° E 08:07:55 15° E 08:08:43 10° E visible
02 Apr ? 09:42:52 33° W 09:44:33 74° N 09:48:34 10° ENE visible
03 Apr ? 07:52:10 11° E 07:52:10 11° E 07:52:22 10° E visible
03 Apr ? 09:27:07 45° WNW 09:28:12 71° N 09:32:12 10° ENE visible
04 Apr ? 09:11:21 61° NW 09:11:49 69° N 09:15:49 10° E visible
05 Apr ? 08:55:34 67° NNE 08:55:34 67° NNE 08:59:24 10° E visible
05 Apr ? 10:31:16 10° WNW 10:35:17 90° S 10:39:19 10° ESE visible
06 Apr ? 08:39:48 50° ENE 08:39:48 50° ENE 08:42:57 10° E visible
06 Apr ? 10:14:49 10° WNW 10:18:50 84° SSW 10:22:51 10° ESE visible
07 Apr ? 08:24:03 34° ENE 08:24:03 34° ENE 08:26:30 10° E visible
07 Apr ? 09:59:00 14° WNW 10:02:21 77° SSW 10:06:21 10° ESE visible
08 Apr ? 08:08:23 23° E 08:08:23 23° E 08:10:00 10° E visible
08 Apr ? 09:43:20 22° W 09:45:49 71° SSW 09:49:48 10° ESE visible
